Tracking 20376 objects as of 20-Feb-2020
HD Live streaming from Space Station
objects crossing your sky now
Track the group of recently launched Starlink satellites

FLOCK 2EP-11


FLOCK 2EP-11 is no longer on orbit
FLOCK 2EP-11 is classified as:


NORAD ID: 41577
Int'l Code: 1998-067KB
Perigee: N/A
Apogee: N/A
Inclination: N/A
Period: N/A
Semi major axis: N/A
RCS: N/A
Launch date: November 20, 1998
Source: United States (US)
Launch site: ()
Decay date: 2018-03-11
aabbcc
Your satellite tracking list
Your tracking list is empty




NASA's NSSDC Master Catalog

Two Line Element Set (TLE):
1 41577U 98067KB  18070.48609598  .17416888  12466-4  85478-3 0  9990
2 41577  51.6089  71.8929 0001695 227.7940 132.4139 16.43071472101519
Source of the keplerian elements: AFSPC